Regional Weather Roundup
Issued by NWS Wakefield, VA

Home | Current Version | Previous Version | Text Only | Print | Product List | Glossary Off
Versions: 1 2 3 4 5 6 7 8 9 10 11 12 13 14 15 16 17 18 19 20 21 22 23 24 25 26 27 28

000
ASUS41 KAKQ 300110
RWRAKQ

REGIONAL WEATHER ROUNDUP
NATIONAL WEATHER SERVICE WAKEFIELD VA
900 PM EDT WED OCT 29 2014

Note: "fair" indicates few or no clouds below 12,000 feet with no
significant weather and/or obstructions to visibility. * = Denotes
station may not report precipitation (e.g., rain,snow,etc.),
thunder or fog.

VAZ042-051-052>054-056-300200-
NORTHERN VIRGINIA

CITY           SKY/WX    TMP DP  RH WIND       PRES   REMARKS
WASH NATIONAL  PTCLDY    57  52  83 CALM      29.99F
DULLES         PTCLDY    47  47 100 CALM      29.99S
FORT BELVOIR   PTCLDY    50  50 100 CALM      29.99S FOG
QUANTICO       PTCLDY    53  50  89 NW5       30.00S
FREDERICKSBRG* MOCLDY    54  54 100 CALM      29.98S
STAFFORD*      FOG      N/A N/A N/A CALM      30.03S VSB 1
WARRENTON      FOG       47  47 100 CALM      29.99S VSB 1/4
CULPEPER*      FOG       46  45  93 CALM      30.00S VSB 1/4
MANASSAS*      MOCLDY    48  48 100 CALM      29.99  VSB 1/2
LEESBURG*      CLEAR     50  50 100 CALM      30.00R FOG
WINCHESTER     CLEAR     48  37  66 CALM      29.99S
FRONT ROYAL*   CLEAR     48  43  81 CALM      29.99S
LURAY*         CLEAR     48  48 100 S3        30.00S
$$

VAZ048-049-060>072-079>083-300200-
CENTRAL AND SOUTH CENTRAL VIRGINIA...AND NORTH CENTRAL NORTH CAROLINA

CITY           SKY/WX    TMP DP  RH WIND       PRES   REMARKS
RICHMOND       LGT RAIN  57  50  77 NE3       29.98S
CHESTERFIELD*  CLOUDY    57  43  58 NE6       29.99S
PETERSBURG*    DRIZZLE   57  52  82 NE7       30.00R
HANOVER        LGT RAIN  55  52  89 CALM      30.01R
TAPPAHANNOCK*  CLOUDY    56  47  71 CALM      30.00R
CHARLOTTSVILLE CLOUDY    55  53  93 CALM      29.99R
ORANGE*        FOG       50  50 100 CALM      30.01S VSB 3/4
LOUISA*        MOCLDY    52  50  93 CALM      29.98S
FARMVILLE*     CLOUDY    57  55  94 CALM      29.97R
CREWE*         CLOUDY    58  54  85 CALM      29.98R
FORT PICKETT*  CLOUDY    58  56  92 W5        29.99R
LUNENBURG*     CLOUDY    60  51  72 CALM      29.98R
SOUTH HILL*    CLOUDY    63  54  72 N6        30.02S
LAWRENCEVILLE* CLOUDY    57  57  98 CALM      29.98S
ROANOKE RAPIDS RAIN      57  55  94 NW7       29.98R
RALEIGH        LGT RAIN  61  54  77 NE3       29.98S
$$

VAZ088>098-300200-
SOUTHEAST VIRGINIA

CITY           SKY/WX    TMP DP  RH WIND       PRES   REMARKS
NORFOLK        CLOUDY    59  54  83 N15       29.96S
VIRGINIA BEACH CLOUDY    62  52  69 N14       29.95S
NORFOLK NAVAL  MOCLDY    62  54  74 N16       29.98R
WEST POINT*    CLOUDY    58  52  81 CALM      30.00R
NEWPORT NEWS   CLOUDY    59  53  80 VRB3      29.97R
LANGLEY AFB    CLOUDY    58  55  87 NE9       29.97R
FORT EUSTIS    DRIZZLE   57  55  94 N6        29.97R
WILLIAMSBURG*  CLOUDY    61  54  77 N8        29.99R
HR EXEC AP*    CLOUDY    59  52  77 NE5       29.98S
FRANKLIN*      CLOUDY    63  57  82 CALM      29.98R
WAKEFIELD      LGT RAIN  59  53  80 VRB3      29.98R
$$

VAZ020-022-025-037-045-300200-
WEST CENTRAL AND SOUTHWEST VIRGINIA

CITY           SKY/WX    TMP DP  RH WIND       PRES   REMARKS
STAUNTON*      CLEAR     51  38  62 CALM      30.02S
HOT SPRINGS VA CLEAR     45  34  66 W14       30.00F
LYNCHBURG      PTCLDY    55  41  59 NW3       30.01R
DANVILLE       CLOUDY    62  44  51 NW6       30.00R
SOUTH BOSTON*  NOT AVBL
MARTINSVILLE   CLOUDY    58  41  53 N3        30.03S
ROANOKE        CLEAR     52  37  56 NW6       30.04R
BLACKSBURG     CLEAR     46  41  81 W3        30.06S
DUBLIN*        CLEAR     50  39  66 CALM      30.07S
MARION*        PTCLDY    44  40  83 W6        30.10S
HILLSVILLE*    CLEAR     46  38  73 W10       30.05S
RICHLANDS*     CLEAR     51  40  66 CALM      30.08S
WISE*          MOCLDY    48  34  57 W5        30.09S
ABINGDON*      MOCLDY    46  44  91 CALM      30.09S
$$

MDZ021>025-VAZ099-100-300200-
SOUTHERN MARYLAND AND THE DELMARVA PENINSULA

CITY           SKY/WX    TMP DP  RH WIND       PRES   REMARKS
PATUXENT RIVER CLOUDY    57  51  80 N5        29.98F
BAY BRIDGE APT   N/A     54  50  87 CALM      29.98F
LEONARDTOWN    CLOUDY    54  50  87 CALM      30.00S
DOVER          CLOUDY    55  48  76 W5        29.96S
GEORGETOWN     CLOUDY    56  47  71 CALM      29.98S
EASTON         CLOUDY    55  54  94 CALM      30.02S
CAMBRIDGE      CLOUDY    55  50  82 CALM      29.98S
SALISBURY      CLOUDY    58  46  64 NW7       29.98R
OCEAN CITY     CLOUDY    54  49  83 N5        29.97R
WALLOPS ISLAND CLOUDY    54  50  86 N3        29.98R
ACCOMACK*      CLOUDY    54  50  87 N5        29.97F
$$

NCZ012>017-030>032-300200-
EASTERN NORTH CAROLINA

CITY           SKY/WX    TMP DP  RH WIND       PRES   REMARKS
ELIZABETH CITY MOCLDY    61  56  83 CALM      29.93S
AHOSKIE*       NOT AVBL
EDENTON*       MOCLDY    63  59  87 CALM      29.93S
CURRITUCK*     MOCLDY    63  58  85 N12       29.94R
KILL DEVIL HLS MOCLDY    67  64  87 SW3       29.92S
MANTEO         MOCLDY    67  65  91 SW3       29.93S
CAPE HATTERAS  PTCLDY    71  67  87 SW8       29.95S
TARBORO*       HVY RAIN  62  60  91 NW7       29.98R
GOLDSBORO      CLOUDY    69  65  89 N6        29.93R
WASHINGTON     CLOUDY    64  60  84 CALM      29.93S
GREENVILLE     RAIN      66  61  82 NW10G16   29.97R
NEW BERN       CLOUDY    70  63  78 S6        29.95S
WILMINGTON     MOCLDY    70  65  84 S8        29.95S
$$

VAZ048-300200-
ELSEWHERE

CITY           SKY/WX    TMP DP  RH WIND       PRES   REMARKS
HARRISBURG PA  MOCLDY    52  50  93 SE5       29.97R
BALTIMORE      MOCLDY    51  49  92 CALM      29.98S
ANNAPOLIS      MOCLDY    54  49  83 CALM      29.98F
ANDREWS AFB    PTCLDY    50  49  97 CALM      29.98F
WILMINGTON DE  CLOUDY    52  50  93 CALM      29.98S
PHILADELPHIA   CLOUDY    55  49  80 W8        29.97S
WILDWOOD NJ*   CLOUDY    55  43  62 NW5       29.97S
ATLANTIC CITY  CLOUDY    54  46  74 NW8       29.96R
HENDERSON NC   CLOUDY    61  49  64 N3        29.98R
GREENSBORO     RAIN      60  48  64 N5        30.00R FOG
ROCKY MOUNT    CLOUDY    61  59  93 N10       29.96F
FAYETTEVILLE   LGT RAIN  71  59  65 SW5       29.93R
CHARLOTTE      MOCLDY    63  52  67 N12       29.98R
$$

VAZ100-300200-
MARINE

STATION/POSITION TIME  TEMP    WIND        PRES    WAVE   SWELL
                       AIR SEA DIR/SP/G            HT/PER HT/PER
                 (UTC) (F)     (DEG/KT/KT) (MB)    (FT/S) (FT/S)
44066 TX TWR #4  0100   63 65  320/ 16/ 17 1012.1R   4/ 6   2/ 7
CAPE MAY NJ      0100   57 64  330/  8/ 11 1014.2R
LEWES DE         0100   58 62  340/  9/ 10 1014.6R
15NM E FENWICK I 0100   59 65              1014.1R   3/ 5
OCEAN-CITY-INLET 0100   56 63  360/  9/ 11 1014.4R
WACHAPREAGUE VA  0100   54 65   10/  4/  7 1014.9R
THOMAS POINT MD  0100   56 62  330/  4/  5 1016.3F
GOOSES REEF MD   0100   58      30/  2/  4 1015.9R
COVE POINT MD    0100   57      30/  4/  6 1015.1F
SOLOMONS ISLAND  0100      63                N/A
BISHOPS HEAD MD  0100   56 62  350/  5/  6 1014.8R
PINEY POINT MD   0100           40/  2/  3   N/A
POTOMAC MD       0100   58      30/  8/ 12 1014.5F
CAMBRIDGE MD     0100   56 61  350/  2/  4 1015.1S
LEWISETTA VA     0100   58 63   20/  3/  5 1014.8R
RAPPAHANNOCK LGT 0100           20/ 19/ 20 1015.1R
STINGRAY PT      0100   60      30/ 14/ 17 1015.3R
YORK RVR RNG VA  0100   58      30/ 13/ 15 1014.0F
YORKTOWN VA      0100   58 64   20/  5/  7 1014.3F
JAMESTOWN VA     0100   58      50/  4/  8   N/A
DOMINION TERM VA 0100   60      10/ 10/ 15 1014.4R
KIPTOPEKE VA     0100      67   40/ 10/ 15   N/A
CHES BAY BRIDGE  0100   58 64  360/ 22/ 24 1013.7S
CHESAPEAKE LGHT  0000   63     360/ 23/ 24 1014.0R
WILLOUBY STN VA  0100   59      20/ 14/ 16 1012.9S
S CRANEY ISL VA  0100          350/ 13/ 16 1014.2R
CAPE HENRY BUOY  0100      65                N/A     4/ 4
1ST LANDING BUOY 0100   61      10/ 21/ 25 1013.7R
CAPE CHARLES BUO 0100      66                N/A     3/ 4   2/ 7
64NM E OF VA BCH 0100   69 67  210/ 10/ 12 1012.7F   3/ 6   2/ 6
DUCK PIER NC     0100   69 68  210/  4/  5 1012.6S
44100 DUCK FRF   0100      67                N/A     3/ 7
OREGON INLET NC  0100   68 69  200/  9/ 11 1013.5S
HATTERAS NC      0100   73 72  230/  7/ 10 1014.5R
DIAMOND SHLS NC  0100   76     220/ 17/ 21 1013.9F   3/ 4   2/ 8
CAPE LOOKOUT NC  0000   72     220/  9/ 10 1014.2S
$$



USA.gov is the U.S. government's official web portal to all federal, state and local government web resources and services.